This is the latest recevied weather packets stored in our database for station/object KC4GS-13. If no packets are shown the sender has not sent any weather packets the latest 10 day(s).
| Time | Temp. | Humidity | Pressure | Rain* | Wind** | Luminosity | Snow |
|---|---|---|---|---|---|---|---|
| 1777731415 | 15° C | 98% | 1013.3 hPa | 0 mm | - | 113 W/m² | - |
| 1777731114 | 15° C | 98% | 1012.9 hPa | 0 mm | - | 158 W/m² | - |
| 1777730812 | 14.44° C | 98% | 1012.8 hPa | 1.27 mm | - | 238 W/m² | - |
| 1777730508 | 14.44° C | 98% | 1012.8 hPa | 1.27 mm | - | 201 W/m² | - |
| 1777730204 | 14.44° C | 98% | 1013.1 hPa | 1.78 mm | - | 217 W/m² | - |
| 1777729901 | 14.44° C | 98% | 1013.5 hPa | 1.78 mm | - | 117 W/m² | - |
| 1777729597 | 14.44° C | 98% | 1013.6 hPa | 1.27 mm | - | 76 W/m² | - |
| 1777729294 | 14.44° C | 98% | 1014 hPa | 1.27 mm | - | 49 W/m² | - |
| 1777728991 | 14.44° C | 98% | 1014.4 hPa | 0 mm | - | 37 W/m² | - |
| 1777728687 | 14.44° C | 98% | 1014.3 hPa | 0 mm | - | 42 W/m² | - |
| 1777728385 | 13.89° C | 98% | 1013.9 hPa | 0 mm | - | 48 W/m² | - |
| 1777728082 | 14.44° C | 98% | 1013.8 hPa | 0 mm | - | 50 W/m² | - |
| 1777727779 | 13.89° C | 98% | 1013.6 hPa | 0 mm | - | 45 W/m² | - |
| 1777727476 | 14.44° C | 98% | 1013.5 hPa | 0 mm | - | 49 W/m² | - |
| 1777727173 | 13.89° C | 98% | 1013.2 hPa | 0 mm | - | 65 W/m² | - |
| 1777726870 | 13.89° C | 98% | 1013.3 hPa | 0 mm | - | 56 W/m² | - |
| 1777726566 | 13.89° C | 98% | 1013.3 hPa | 0 mm | - | 69 W/m² | - |
| 1777726258 | 13.89° C | 98% | 1013.2 hPa | 0 mm | - | 75 W/m² | - |
| 1777725955 | 13.89° C | 98% | 1013.6 hPa | 0 mm | - | 74 W/m² | - |
| 1777725652 | 13.89° C | 98% | 1013.2 hPa | 0 mm | - | 59 W/m² | - |
| 1777725350 | 13.89° C | 98% | 1012.9 hPa | 0 mm | - | 49 W/m² | - |
| 1777725046 | 13.89° C | 98% | 1012.5 hPa | 0 mm | - | 62 W/m² | - |
| 1777724743 | 13.89° C | 98% | 1012.6 hPa | 1.78 mm | - | 48 W/m² | - |
| 1777724441 | 13.33° C | 98% | 1012.4 hPa | 1.78 mm | - | 46 W/m² | - |
| 1777724138 | 13.33° C | 98% | 1012.8 hPa | 0 mm | - | 28 W/m² | - |
* Rain latest hour (hover to see other rain measurements)
** Current wind speed in m/s (hover to see current wind gust speed)